TimeCST,TemperatureF,Dew PointF,Humidity,Sea Level PressureIn,VisibilityMPH,Wind Direction,Wind SpeedMPH,Gust SpeedMPH,PrecipitationIn,Events,Conditions,WindDirDegrees,DateUTC
12:52 AM,15.1,9.0,77,30.24,10.0,West,6.9,-,N/A,,Mostly Cloudy,280,2012-11-12 06:52:00
1:52 AM,16.0,10.0,77,30.23,10.0,West,8.1,-,N/A,,Scattered Clouds,270,2012-11-12 07:52:00
2:52 AM,18.0,10.9,74,30.23,10.0,West,13.8,-,N/A,,Clear,270,2012-11-12 08:52:00
3:52 AM,17.1,9.0,71,30.24,10.0,West,13.8,-,N/A,,Clear,260,2012-11-12 09:52:00
4:52 AM,16.0,9.0,74,30.25,10.0,West,10.4,-,N/A,,Clear,270,2012-11-12 10:52:00
5:52 AM,15.8,8.6,73,30.14,10.0,West,8.1,-,N/A,,Clear,260,2012-11-12 11:52:00
6:52 AM,10.9,6.1,81,30.29,10.0,West,8.1,-,N/A,,Clear,280,2012-11-12 12:52:00
7:52 AM,12.0,5.0,73,30.32,10.0,West,4.6,-,N/A,,Clear,260,2012-11-12 13:52:00
8:52 AM,19.0,9.0,65,30.33,10.0,Calm,Calm,-,N/A,,Clear,0,2012-11-12 14:52:00
9:52 AM,25.0,10.9,55,30.35,10.0,West,16.1,-,N/A,,Clear,280,2012-11-12 15:52:00
10:52 AM,30.0,15.1,54,30.35,10.0,WNW,12.7,-,N/A,,Clear,290,2012-11-12 16:52:00
11:52 AM,32.0,16.0,52,30.34,10.0,West,17.3,-,N/A,,Clear,280,2012-11-12 17:52:00
12:52 PM,35.1,18.0,50,30.32,10.0,West,16.1,-,N/A,,Clear,280,2012-11-12 18:52:00
1:52 PM,37.0,17.1,44,30.32,10.0,West,12.7,-,N/A,,Clear,280,2012-11-12 19:52:00
2:52 PM,37.9,17.1,43,30.31,10.0,West,15.0,-,N/A,,Clear,280,2012-11-12 20:52:00
3:52 PM,37.9,15.1,39,30.32,10.0,West,12.7,-,N/A,,Clear,270,2012-11-12 21:52:00
4:52 PM,35.1,17.1,48,30.33,10.0,WSW,8.1,-,N/A,,Clear,250,2012-11-12 22:52:00
5:52 PM,27.0,18.0,69,30.35,10.0,SW,9.2,-,N/A,,Clear,220,2012-11-12 23:52:00
6:52 PM,26.1,19.0,75,30.35,10.0,SW,8.1,-,N/A,,Clear,220,2012-11-13 00:52:00
7:52 PM,24.1,17.1,75,30.36,10.0,SSW,6.9,-,N/A,,Clear,200,2012-11-13 01:52:00
8:52 PM,23.0,17.1,78,30.36,10.0,SSW,6.9,-,N/A,,Clear,200,2012-11-13 02:52:00
9:52 PM,23.0,17.1,78,30.35,10.0,Calm,Calm,-,N/A,,Clear,0,2012-11-13 03:52:00
10:52 PM,21.9,16.0,78,30.33,10.0,Calm,Calm,-,N/A,,Clear,0,2012-11-13 04:52:00
11:52 PM,21.0,16.0,81,30.32,10.0,Calm,Calm,-,N/A,,Clear,0,2012-11-13 05:52:00